Time,TemperatureF,DewpointF,PressureIn,WindDirection,WindDirectionDegrees,WindSpeedMPH,WindSpeedGustMPH,Humidity,HourlyPrecipIn,Conditions,Clouds,dailyrainin,SoftwareType,DateUTC
2013-04-04 07:02:00,48.0,47.0,29.95,NE,49,0.0,2.0,98,0.09,,,0.58,,2013-04-04 14:02:00,
2013-04-04 07:12:00,48.0,47.0,29.95,NE,49,0.0,2.0,98,0.09,,,0.58,,2013-04-04 14:12:00,
2013-04-04 07:22:00,48.0,47.0,29.96,SE,126,1.0,2.0,98,0.08,,,0.59,,2013-04-04 14:22:00,
2013-04-04 07:32:00,49.0,48.0,29.96,South,178,1.0,5.0,98,0.09,,,0.62,,2013-04-04 14:32:00,
2013-04-04 07:42:00,49.0,48.0,29.96,South,178,1.0,5.0,98,0.09,,,0.62,,2013-04-04 14:42:00,
2013-04-04 07:52:00,49.0,48.0,29.97,South,171,0.0,1.0,98,0.05,,,0.62,,2013-04-04 14:52:00,
2013-04-04 08:02:00,49.0,48.0,29.98,South,171,0.0,2.0,98,0.04,,,0.62,,2013-04-04 15:02:00,
2013-04-04 08:12:00,49.0,48.0,29.98,South,171,0.0,2.0,98,0.04,,,0.62,,2013-04-04 15:12:00,
2013-04-04 08:22:00,49.0,48.0,29.98,South,171,0.0,1.0,98,0.04,,,0.63,,2013-04-04 15:22:00,
2013-04-04 08:33:00,50.0,49.0,29.99,South,171,0.0,1.0,98,0.04,,,0.66,,2013-04-04 15:33:00,
2013-04-04 08:42:00,50.0,49.0,29.99,South,171,0.0,1.0,98,0.04,,,0.66,,2013-04-04 15:42:00,
2013-04-04 08:53:00,50.0,49.0,30.00,SE,124,0.0,1.0,98,0.06,,,0.68,,2013-04-04 15:53:00,
2013-04-04 09:02:00,51.0,51.0,30.00,ESE,114,0.0,2.0,99,0.08,,,0.70,,2013-04-04 16:02:00,
2013-04-04 09:12:00,51.0,51.0,30.00,ESE,114,0.0,2.0,99,0.08,,,0.70,,2013-04-04 16:12:00,
2013-04-04 09:23:00,51.0,50.0,30.00,ENE,63,0.0,2.0,98,0.11,,,0.74,,2013-04-04 16:23:00,
2013-04-04 09:32:00,52.0,52.0,30.01,ESE,116,1.0,2.0,99,0.07,,,0.74,,2013-04-04 16:32:00,
2013-04-04 09:42:00,52.0,52.0,30.01,ESE,116,1.0,2.0,99,0.07,,,0.74,,2013-04-04 16:42:00,
2013-04-04 09:52:00,52.0,51.0,30.01,ESE,121,0.0,1.0,98,0.06,,,0.74,,2013-04-04 16:52:00,
2013-04-04 10:02:00,52.0,51.0,30.01,ESE,108,1.0,2.0,98,0.06,,,0.76,,2013-04-04 17:02:00,
2013-04-04 10:12:00,52.0,51.0,30.01,ESE,108,1.0,2.0,98,0.06,,,0.76,,2013-04-04 17:12:00,
2013-04-04 10:22:00,52.0,51.0,30.02,SE,136,1.0,4.0,98,0.02,,,0.76,,2013-04-04 17:22:00,
2013-04-04 10:32:00,52.0,51.0,30.03,ESE,105,1.0,3.0,98,0.04,,,0.78,,2013-04-04 17:32:00,
2013-04-04 10:42:00,52.0,51.0,30.03,ESE,105,1.0,3.0,98,0.04,,,0.78,,2013-04-04 17:42:00,
2013-04-04 10:52:00,53.0,52.0,30.03,SE,134,0.0,3.0,98,0.06,,,0.80,,2013-04-04 17:52:00,
2013-04-04 11:02:00,53.0,52.0,30.03,ENE,74,1.0,4.0,98,0.04,,,0.80,,2013-04-04 18:02:00,
2013-04-04 11:12:00,53.0,52.0,30.03,ENE,74,1.0,4.0,98,0.04,,,0.80,,2013-04-04 18:12:00,
2013-04-04 11:22:00,53.0,52.0,30.03,South,182,3.0,7.0,97,0.04,,,0.81,,2013-04-04 18:22:00,
2013-04-04 11:32:00,54.0,53.0,30.03,ESE,123,1.0,3.0,97,0.03,,,0.81,,2013-04-04 18:32:00,
2013-04-04 11:42:00,54.0,53.0,30.03,ESE,123,1.0,3.0,97,0.03,,,0.81,,2013-04-04 18:42:00,
2013-04-04 11:52:00,53.0,52.0,30.04,East,100,2.0,7.0,97,0.03,,,0.83,,2013-04-04 18:52:00,
2013-04-04 12:02:00,54.0,53.0,30.04,East,91,2.0,4.0,97,0.04,,,0.84,,2013-04-04 19:02:00,
2013-04-04 12:12:00,54.0,53.0,30.04,East,91,2.0,4.0,97,0.04,,,0.84,,2013-04-04 19:12:00,
2013-04-04 12:21:00,54.0,53.0,30.04,SE,125,2.0,5.0,97,0.05,,,0.86,,2013-04-04 19:21:00,
2013-04-04 12:32:00,54.0,53.0,30.04,South,185,3.0,13.0,97,0.07,,,0.88,,2013-04-04 19:32:00,
2013-04-04 12:42:00,54.0,53.0,30.04,South,185,3.0,13.0,97,0.07,,,0.88,,2013-04-04 19:42:00,
2013-04-04 12:52:00,55.0,54.0,30.04,SE,136,3.0,10.0,97,0.07,,,0.90,,2013-04-04 19:52:00,
2013-04-04 13:02:00,55.0,54.0,30.04,SSW,194,2.0,10.0,97,0.08,,,0.92,,2013-04-04 20:02:00,
2013-04-04 13:12:00,55.0,54.0,30.04,SSW,194,2.0,10.0,97,0.08,,,0.92,,2013-04-04 20:12:00,
2013-04-04 13:22:00,55.0,54.0,30.04,South,188,3.0,9.0,97,0.07,,,0.93,,2013-04-04 20:22:00,
2013-04-04 13:32:00,55.0,54.0,30.04,SE,126,1.0,4.0,97,0.08,,,0.96,,2013-04-04 20:32:00,
2013-04-04 13:42:00,55.0,54.0,30.04,SE,126,1.0,4.0,97,0.08,,,0.96,,2013-04-04 20:42:00,
2013-04-04 13:52:00,55.0,54.0,30.04,SE,146,2.0,7.0,97,0.07,,,0.98,,2013-04-04 20:52:00,
2013-04-04 14:02:00,55.0,54.0,30.04,ESE,108,2.0,9.0,97,0.07,,,0.99,,2013-04-04 21:02:00,
2013-04-04 14:12:00,55.0,54.0,30.04,ESE,108,2.0,9.0,97,0.07,,,0.99,,2013-04-04 21:12:00,
2013-04-04 14:22:00,55.0,54.0,30.04,SE,138,2.0,10.0,97,0.06,,,0.99,,2013-04-04 21:22:00,
2013-04-04 14:32:00,55.0,54.0,30.04,SE,143,1.0,8.0,97,0.04,,,1.00,,2013-04-04 21:32:00,
2013-04-04 14:42:00,55.0,54.0,30.04,SE,143,1.0,8.0,97,0.04,,,1.00,,2013-04-04 21:42:00,
2013-04-04 14:52:00,55.0,54.0,30.04,SE,144,2.0,6.0,97,0.02,,,1.00,,2013-04-04 21:52:00,
2013-04-04 15:03:00,55.0,54.0,30.04,South,174,3.0,9.0,97,0.01,,,1.00,,2013-04-04 22:03:00,
2013-04-04 15:12:00,55.0,54.0,30.04,South,174,3.0,9.0,97,0.01,,,1.00,,2013-04-04 22:12:00,
2013-04-04 15:22:00,55.0,54.0,30.04,South,182,4.0,9.0,97,0.01,,,1.00,,2013-04-04 22:22:00,
2013-04-04 15:32:00,55.0,54.0,30.05,SE,146,3.0,7.0,97,0.00,,,1.00,,2013-04-04 22:32:00,
2013-04-04 15:42:00,55.0,54.0,30.05,SE,146,3.0,7.0,97,0.00,,,1.00,,2013-04-04 22:42:00,
2013-04-04 15:52:00,55.0,54.0,30.04,SE,133,3.0,13.0,96,0.00,,,1.00,,2013-04-04 22:52:00,
2013-04-04 16:02:00,55.0,54.0,30.05,SSE,154,3.0,9.0,96,0.00,,,1.00,,2013-04-04 23:02:00,
2013-04-04 16:12:00,55.0,54.0,30.05,SSE,154,3.0,9.0,96,0.00,,,1.00,,2013-04-04 23:12:00,
2013-04-04 16:22:00,55.0,54.0,30.05,SE,138,3.0,10.0,97,0.00,,,1.00,,2013-04-04 23:22:00,
2013-04-04 16:32:00,54.0,53.0,30.05,SSW,195,2.0,8.0,97,0.00,,,1.00,,2013-04-04 23:32:00,
2013-04-04 16:42:00,54.0,53.0,30.05,SSW,195,2.0,8.0,97,0.00,,,1.00,,2013-04-04 23:42:00,
2013-04-04 16:52:00,54.0,53.0,30.06,East,91,4.0,12.0,97,0.00,,,1.00,,2013-04-04 23:52:00,
2013-04-04 17:02:00,54.0,53.0,30.05,South,178,5.0,12.0,97,0.00,,,1.00,,2013-04-05 00:02:00,
2013-04-04 17:12:00,54.0,53.0,30.05,South,178,5.0,12.0,97,0.00,,,1.00,,2013-04-05 00:12:00,
2013-04-04 17:22:00,54.0,53.0,30.05,SSE,151,3.0,10.0,97,0.00,,,1.00,,2013-04-05 00:22:00,
2013-04-04 17:42:00,54.0,53.0,30.05,SSE,167,4.0,9.0,97,0.00,,,1.00,,2013-04-05 00:42:00,
2013-04-04 17:52:00,53.0,52.0,30.05,SE,127,2.0,5.0,98,0.00,,,1.00,,2013-04-05 00:52:00,
2013-04-04 18:02:00,54.0,53.0,30.05,North,5,2.0,9.0,97,0.00,,,1.00,,2013-04-05 01:02:00,
2013-04-04 18:12:00,54.0,53.0,30.05,North,5,2.0,9.0,97,0.00,,,1.00,,2013-04-05 01:12:00,
2013-04-04 18:22:00,54.0,53.0,30.04,South,179,2.0,7.0,97,0.00,,,1.00,,2013-04-05 01:22:00,
2013-04-04 18:32:00,54.0,53.0,30.04,ESE,123,1.0,7.0,97,0.00,,,1.00,,2013-04-05 01:32:00,
2013-04-04 18:42:00,54.0,53.0,30.04,ESE,123,1.0,7.0,97,0.00,,,1.00,,2013-04-05 01:42:00,
2013-04-04 18:52:00,54.0,53.0,30.04,SE,128,1.0,5.0,97,0.00,,,1.00,,2013-04-05 01:52:00,
2013-04-04 19:02:00,53.0,52.0,30.04,SSW,206,2.0,6.0,98,0.00,,,1.00,,2013-04-05 02:02:00,
2013-04-04 19:12:00,53.0,52.0,30.04,SSW,206,2.0,6.0,98,0.00,,,1.00,,2013-04-05 02:12:00,
2013-04-04 19:22:00,53.0,52.0,30.05,SE,130,2.0,10.0,97,0.00,,,1.00,,2013-04-05 02:22:00,
2013-04-04 19:32:00,53.0,52.0,30.04,SE,137,2.0,10.0,98,0.00,,,1.00,,2013-04-05 02:32:00,
2013-04-04 19:42:00,53.0,52.0,30.04,SE,137,2.0,10.0,98,0.00,,,1.00,,2013-04-05 02:42:00,
2013-04-04 19:52:00,53.0,52.0,30.04,SE,137,2.0,10.0,98,0.00,,,1.00,,2013-04-05 02:52:00,
2013-04-04 20:02:00,53.0,52.0,30.04,SE,137,2.0,10.0,98,0.00,,,1.00,,2013-04-05 03:02:00,